Location: Ferchesar
(52.6477°N, 12.4298°E)
Time: 12:02:23
(UTC+01:00)

Transit 2A - Pass Details

Date: 08 December 2021
Orbit: 591 x 967 km, 66.7° (Epoch: 23 January)

Event Time Altitude Azimuth Distance (km) Brightness Sun altitude
Exits shadow 02:44:58 13° 34° (NE) 2,480 9.0 -47.0°
Drops below altitude 10° 02:45:50 10° 39° (NE) 2,714 9.3 -46.9°
Sets 02:48:55 0° 52° (NE) 3,664 10.2 -46.5°
